TimeCET,TemperatureF,Dew PointF,Humidity,Sea Level PressureIn,VisibilityMPH,Wind Direction,Wind SpeedMPH,Gust SpeedMPH,PrecipitationIn,Events,Conditions,WindDirDegrees,DateUTC
12:00 AM,41.0,39.2,93,30.12,6.2,WSW,11.5,-,N/A,,Mostly Cloudy,250,2012-11-21 23:00:00
12:30 AM,41.0,37.4,87,30.15,6.2,WSW,11.5,-,N/A,,Mostly Cloudy,240,2012-11-21 23:30:00
1:00 AM,40,37,85,30.20,6,WSW,11.2,,,,Mostly Cloudy,250,2012-11-22 00:00:00
1:00 AM,41.0,37.4,87,30.15,6.2,WSW,10.4,-,N/A,,Mostly Cloudy,240,2012-11-22 00:00:00
1:30 AM,41.0,37.4,87,30.15,6.2,SW,10.4,-,N/A,,Mostly Cloudy,230,2012-11-22 00:30:00
2:00 AM,39.2,37.4,93,30.15,6.2,SW,8.1,-,N/A,,Mostly Cloudy,220,2012-11-22 01:00:00
2:30 AM,39.2,37.4,93,30.15,6.2,SW,8.1,-,N/A,,Overcast,220,2012-11-22 01:30:00
3:00 AM,39.2,37.4,93,30.18,6.2,SSW,9.2,-,N/A,,Overcast,210,2012-11-22 02:00:00
3:30 AM,39.2,37.4,93,30.15,6.2,SW,11.5,-,N/A,,Overcast,220,2012-11-22 02:30:00
4:00 AM,39.2,37.4,93,30.18,6.2,SSW,9.2,-,N/A,,Partly Cloudy,200,2012-11-22 03:00:00
4:30 AM,39.2,35.6,87,30.18,6.2,SSW,9.2,-,N/A,,Mostly Cloudy,200,2012-11-22 03:30:00
5:00 AM,39.2,37.4,93,30.18,6.2,SSW,10.4,-,N/A,,Mostly Cloudy,210,2012-11-22 04:00:00
5:20 AM,41.0,37.4,87,30.18,6.2,SW,10.4,-,N/A,,Mostly Cloudy,230,2012-11-22 04:20:00
5:30 AM,41.0,37.4,87,30.18,6.2,SW,10.4,-,N/A,,Mostly Cloudy,230,2012-11-22 04:30:00
6:00 AM,41.0,37.4,87,30.18,6.2,SW,11.5,-,N/A,,Mostly Cloudy,230,2012-11-22 05:00:00
6:30 AM,41.0,37.4,87,30.18,6.2,WSW,12.7,-,N/A,,Partly Cloudy,240,2012-11-22 05:30:00
7:00 AM,41,38,87,30.25,6,WSW,11.2,,,,Partly Cloudy,240,2012-11-22 06:00:00
7:00 AM,41.0,39.2,93,30.21,6.2,SW,12.7,-,N/A,,Scattered Clouds,230,2012-11-22 06:00:00
7:30 AM,41.0,39.2,93,30.21,5.0,WSW,10.4,-,N/A,,Mostly Cloudy,240,2012-11-22 06:30:00
8:00 AM,41.0,39.2,93,30.24,6.2,SW,10.4,-,N/A,,Scattered Clouds,230,2012-11-22 07:00:00
8:30 AM,41.0,39.2,93,30.24,6.2,WSW,11.5,-,N/A,,Partly Cloudy,240,2012-11-22 07:30:00
9:00 AM,42.8,39.2,87,30.24,-9999.0,WSW,11.5,-,N/A,,Clear,240,2012-11-22 08:00:00
9:30 AM,42.8,39.2,87,30.24,-9999.0,SW,11.5,-,N/A,,Clear,230,2012-11-22 08:30:00
10:00 AM,42.8,39.2,87,30.24,-9999.0,WSW,10.4,-,N/A,,Clear,240,2012-11-22 09:00:00
10:30 AM,42.8,39.2,87,30.27,-9999.0,WSW,8.1,-,N/A,,Clear,250,2012-11-22 09:30:00
11:00 AM,44.6,41.0,87,30.27,-9999.0,SW,8.1,-,N/A,,Clear,230,2012-11-22 10:00:00
11:30 AM,46.4,41.0,81,30.24,-9999.0,SW,6.9,-,N/A,,Clear,220,2012-11-22 10:30:00
12:00 PM,46.4,41.0,81,30.27,6.2,WSW,8.1,-,N/A,,Partly Cloudy,250,2012-11-22 11:00:00
12:30 PM,46.4,41.0,81,30.27,6.2,WSW,6.9,-,N/A,,Partly Cloudy,250,2012-11-22 11:30:00
1:00 PM,46,41,78,30.30,9,SW,6.7,,,,Mostly Cloudy,230,2012-11-22 12:00:00
1:00 PM,46.4,41.0,81,30.27,6.2,WSW,6.9,-,N/A,,Mostly Cloudy,240,2012-11-22 12:00:00
1:30 PM,46.4,41.0,81,30.24,6.2,SW,5.8,-,N/A,,Mostly Cloudy,230,2012-11-22 12:30:00
2:00 PM,46.4,41.0,81,30.24,6.2,West,5.8,-,N/A,,Mostly Cloudy,260,2012-11-22 13:00:00
2:30 PM,44.6,41.0,87,30.24,6.2,WSW,6.9,-,N/A,,Mostly Cloudy,240,2012-11-22 13:30:00
3:00 PM,44.6,41.0,87,30.24,6.2,WSW,6.9,-,N/A,,Mostly Cloudy,250,2012-11-22 14:00:00
3:30 PM,44.6,41.0,87,30.24,6.2,WSW,3.5,-,N/A,,Mostly Cloudy,240,2012-11-22 14:30:00
4:00 PM,44.6,41.0,87,30.24,6.2,SW,4.6,-,N/A,,Mostly Cloudy,230,2012-11-22 15:00:00
4:30 PM,42.8,41.0,93,30.27,6.2,WSW,3.5,-,N/A,,Overcast,250,2012-11-22 15:30:00
5:00 PM,42.8,41.0,93,30.27,6.2,WSW,3.5,-,N/A,,Overcast,240,2012-11-22 16:00:00
5:30 PM,42.8,39.2,87,30.24,6.2,SSW,3.5,-,N/A,,Overcast,210,2012-11-22 16:30:00
6:00 PM,42.8,39.2,87,30.24,6.2,SSW,3.5,-,N/A,,Scattered Clouds,210,2012-11-22 17:00:00
6:30 PM,42.8,39.2,87,30.24,-9999.0,SSW,4.6,-,N/A,,Clear,210,2012-11-22 17:30:00
7:00 PM,42,40,88,30.30,6,South,2.2,,,,Mostly Cloudy,190,2012-11-22 18:00:00
7:00 PM,42.8,39.2,87,30.24,-9999.0,SSW,3.5,-,N/A,,Clear,200,2012-11-22 18:00:00
7:30 PM,41.0,39.2,93,30.24,6.2,SW,3.5,-,N/A,,Mostly Cloudy,220,2012-11-22 18:30:00
8:00 PM,41.0,39.2,93,30.24,6.2,West,2.3,-,N/A,,Mostly Cloudy,260,2012-11-22 19:00:00
8:30 PM,42.8,39.2,87,30.24,6.2,Variable,1.2,-,N/A,,Mostly Cloudy,0,2012-11-22 19:30:00
9:00 PM,42.8,39.2,87,30.24,6.2,Variable,1.2,-,N/A,,Mostly Cloudy,0,2012-11-22 20:00:00
9:30 PM,42.8,39.2,87,30.24,6.2,Variable,1.2,-,N/A,,Mostly Cloudy,0,2012-11-22 20:30:00
10:00 PM,42.8,39.2,87,30.24,6.2,Variable,1.2,-,N/A,,Mostly Cloudy,0,2012-11-22 21:00:00
10:30 PM,42.8,39.2,87,30.24,6.2,Calm,Calm,-,N/A,,Mostly Cloudy,0,2012-11-22 21:30:00
11:00 PM,42.8,39.2,87,30.24,5.0,East,1.2,-,N/A,,Mostly Cloudy,80,2012-11-22 22:00:00
11:30 PM,42.8,39.2,87,30.24,5.6,Calm,Calm,-,N/A,,Overcast,0,2012-11-22 22:30:00